Location: Moy Burn
(57.3833°N, 4.0667°W)
Time: 10:27:19
(UTC+00:00)

Cosmos 2242 Rocket - Pass Details

Date: 08 August 2020
Orbit: 618 x 652 km, 82.5° (Epoch: 22 September)

Event Time Altitude Azimuth Distance (km) Brightness Sun altitude
Rises 22:14:29 0° 344° (NNW) 2,943 8.7 -12.2°
Reaches altitude 10° 22:16:47 10° 340° (NNW) 2,025 7.6 -12.4°
Maximum altitude 22:21:08 52° 265° (W) 789 4.2 -12.7°
Enters shadow 22:25:01 12° 191° (S) 1,837 5.5 -12.9°
